Regional Weather Roundup
Issued by NWS

Home | Current Version | Previous Version | Graphics & Text | Print | Product List | Glossary On
Versions: 1 2 3 4 5 6 7 8 9 10 11 12 13 14 15 16 17 18 19 20 21 22 23 24 25 26 27 28 29 30 31 32 33 34 35 36 37 38 39 40 41 42 43 44 45 46 47 48 49 50
030
ASUS43 KMPX 280701
RWRMN
WEATHER ROUNDUP FOR MINNESOTA
NATIONAL WEATHER SERVICE TWIN CITIES/CHANHASSEN MN
100 AM CST TUE FEB 28 2017


NOTE: "FAIR" INDICATES FEW OR NO CLOUDS BELOW 12,000 FEET WITH NO
SIGNIFICANT WEATHER AND/OR OBSTRUCTIONS TO VISIBILITY. N/A MEANS
CURRENT SKY AND/OR WEATHER CONDITIONS ARE NOT AVAILABLE.

MNZ060>063-068>070-280800-
   Twin Cities Metro

CITY           SKY/WX    TMP DP  RH WIND       PRES   REMARKS
TWIN CITIES    CLOUDY    38  29  70 SE5       29.79F
ST PAUL        CLOUDY    37  30  75 S6        29.81F
CRYSTAL        CLOUDY    38  27  64 SE5       29.78F
BLAINE         MOCLDY    37  30  75 SE6       29.79F
LAKEVILLE      CLOUDY    34  30  86 SE6       29.78F WCI  29
EDEN PRAIRIE   CLOUDY    37  29  72 E6        29.76F
SOUTH ST PAUL  CLOUDY    37  29  72 CALM      29.79F
LAKE ELMO      CLOUDY    37  32  81 SE6       29.81F
$$
MNZ001>005-007-008-013>017-022>024-027-028-280800-
   Northwest Minnesota

CITY           SKY/WX    TMP DP  RH WIND       PRES   REMARKS
BEMIDJI        CLOUDY    25  14  61 N9        29.83R WCI  16
HALLOCK        CLEAR     10   7  85 N8        29.94F WCI  -1
ROSEAU         CLOUDY    16  10  79 NE9       29.93S WCI   4
WARROAD        FLURRIES  14  10  85 NE7       29.94R WCI   4
THIEF RVR FALL CLOUDY    19  16  88 NE12      29.89F WCI   7
CROOKSTON      CLOUDY    19  18  93 NE8       29.91S WCI   9
FOSSTON        CLOUDY    21  16  79 NE9       29.85F WCI  11
DETROIT LAKES  CLOUDY    28  23  80 N6        29.80F WCI  22
MOORHEAD       CLOUDY    23  19  86 N15       29.85S WCI  10
PARK RAPIDS    CLOUDY    30  19  63 N8        29.78S WCI  22
MAHNOMEN       CLOUDY    24  17  74 N13       29.82F WCI  12
$$
MNZ006-009>011-018-025>026-280800-
   North Central Minnesota

CITY           SKY/WX    TMP DP  RH WIND       PRES   REMARKS
BAUDETTE       CLOUDY    19  15  84 N7        29.90R WCI  10
FLAG ISLAND    CLOUDY    14   9  79 NE9       29.93F WCI   2
INTL FALLS     LGT SNOW  22  16  78 N6        29.89S WCI  14
WASKISH        CLOUDY    25  16  68 NE8       29.89R WCI  16
BIG FORK       CLOUDY    28  19  69 N6        29.83S WCI  22
LONGVILLE      CLOUDY    30  25  80 CALM      29.79R
GRAND RAPIDS   LGT RAIN  33  26  75 S12       29.81F WCI  24
CRANE LAKE     LGT SNOW  23  21  93 CALM      29.89F
ORR            MIX PCPN  25  19  80 CALM      29.82F
COOK           CLOUDY    27  21  80 CALM      29.84F
WALKER         CLOUDY    27  19  74 NW5       29.81R WCI  21
$$
MNZ012-019>021-037-280800-
   Northeast Minnesota

CITY           SKY/WX    TMP DP  RH WIND       PRES   REMARKS
DULUTH         CLOUDY    25  22  88 E3        29.83F
ELY            CLOUDY    27  21  80 CALM      29.85S
HIBBING        CLOUDY    28  24  85 SE5       29.81F WCI  23
EVELETH        MIX PCPN  30  23  74 CALM      29.83F
DULUTH HARBOR  MOCLDY    32  30  93 CALM      29.87F
TWO HARBORS    PTCLDY    27  21  80 N6        29.84F WCI  20
SILVER BAY     PTCLDY    25  25 100 N5        29.85F WCI  19
GRAND MARAIS     N/A     30  25  81 NE6       29.91F WCI  24
G MARAIS ARPRT FOG       19  18  93 N5        29.86F VSB 1/4 WCI  13
$$
MNZ029>031-032-039>041-046>048-054>057-064-280800-
   West Central Minnesota

CITY           SKY/WX    TMP DP  RH WIND       PRES   REMARKS
FERGUS FALLS   CLOUDY    28  25  86 N3        29.83S
WHEATON        CLOUDY    28  25  86 NW13G22   29.81S WCI  18
MORRIS         PTCLDY    30  30 100 CALM      29.77R
ALEXANDRIA     CLOUDY    32  28  85 N6        29.76F WCI  26
ELBOW LAKE     MOCLDY    31  29  94 NW3       29.78S
WADENA         CLOUDY    32  27  80 NW3       29.77F
GLENWOOD       CLOUDY    32  28  86 E5        29.76F WCI  27
APPLETON       CLOUDY    34  30  86 NW5       29.77R WCI  30
BENSON         CLOUDY    36  27  69 CALM      29.78R
ORTONVILLE     CLOUDY    30  27  86 N9        29.78R WCI  22
MADISON        CLOUDY    36  32  87 NW6       29.77R
WILLMAR        FAIR      34  30  86 NE6       29.76F WCI  29
$$
MNZ033>034-036-042>043-049>051-058-059-280800-
   Central Minnesota

CITY           SKY/WX    TMP DP  RH WIND       PRES   REMARKS
ST CLOUD       CLOUDY    34  27  75 E7        29.76F WCI  28
SAUK CENTRE    CLOUDY    33  28  82 CALM      29.77S
PAYNESVILLE    PTCLDY    33  29  85 E5        29.76F WCI  29
AITKIN         MIX PCPN  36  23  60 SE6       29.79F
PINE RIVER     CLOUDY    32  27  80 SE6       29.82F WCI  26
BRAINERD       CLOUDY    34  25  69 SE7       29.79F WCI  28
STAPLES        CLOUDY    30  25  80 CALM      29.77F
LONG PRAIRIE   CLOUDY    32  28  86 CALM      29.77F
LITTLE FALLS   CLOUDY    34  27  75 CALM      29.78F
LITCHFIELD     CLOUDY    36  30  80 E5        29.75F
BUFFALO        CLOUDY    32  28  86 NE5       29.78F WCI  27
MAPLE LAKE     CLOUDY    35  31  84 E5        29.77F WCI  31
HUTCHINSON     CLOUDY    36  32  86 E7        29.75F
$$
MNZ037-044-045-052-053-280800-
   East Central Minnesota

CITY           SKY/WX    TMP DP  RH WIND       PRES   REMARKS
PRINCETON      CLOUDY    34  27  75 NE3       29.78F
MORA           MOCLDY    32  27  80 CALM      29.82F
CAMBRIDGE      CLOUDY    36  25  64 CALM      29.79F
RUSH CITY      CLOUDY    34  25  70 SE6       29.80F WCI  29
MOOSE LAKE     CLOUDY    28  27  93 CALM      29.81F
HINCKLEY       PTSUNNY   30  25  80 N3        29.81F
CLOQUET        CLOUDY    27  25  93 CALM      29.83S
MCGREGOR       CLOUDY    32  27  80 CALM      29.82F
$$
MNZ071>073-080-081-089-090-097-098-280800-
   Southwest Minnesota

CITY           SKY/WX    TMP DP  RH WIND       PRES   REMARKS
MONTEVIDEO     CLOUDY    32  30  93 CALM      29.78R
GRANITE FALLS  CLOUDY    34  31  89 N5        29.77R WCI  30
CANBY          CLOUDY    33  31  90 NW10      29.77R WCI  25
MARSHALL       CLOUDY    30  29  96 CALM      29.75R
REDWOOD FALLS  CLOUDY    35  29  78 SE7       29.74F WCI  29
OLIVIA         CLOUDY    34  32  93 N5        29.74S WCI  30
PIPESTONE      CLOUDY    36  28  75 SE3       29.70S
WINDOM         CLEAR     36  30  80 SE6       29.72R
WORTHINGTON    CLOUDY    37  30  75 S7        29.71S
JACKSON        MOCLDY    36  32  87 SE8       29.72S
TRACY          CLOUDY    32  31  95 S5        29.72S WCI  28
SLAYTON        CLOUDY    32  31  95 SE3       29.72S
$$
MNZ065>067-074>077-082>085-091>093-280800-
   South Central Minnesota

CITY           SKY/WX    TMP DP  RH WIND       PRES   REMARKS
MANKATO          N/A     36  30  79 SE9       29.75F
NEW ULM        CLEAR     34  28  80 SE5       29.74F WCI  30
ST JAMES       CLEAR     34  30  86 CALM      29.75S
FAIRMONT       PTCLDY    36  31  82 SE9       29.73F
GLENCOE        CLOUDY    36  33  87 CALM      29.75F
FARIBAULT      CLOUDY    39  32  75 SE10      29.77F
OWATONNA       PTCLDY    39  30  70 SE13      29.76F
WASECA         CLOUDY    36  32  87 SE14      29.76F
ALBERT LEA     CLOUDY    39  32  75 SE10      29.76F
$$
MNZ078>079-086>088-094>096-280800-
   Southeast Minnesota

CITY           SKY/WX    TMP DP  RH WIND       PRES   REMARKS
ROCHESTER      CLOUDY    37  32  82 SE15      29.80F
RED WING       CLOUDY    39  28  65 E5        29.81F
STANTON        MOCLDY    40  32  70 SE3       29.77F
WINONA         CLOUDY    36  32  87 CALM      29.86F
AUSTIN         PTCLDY    39  32  75 SE10      29.77F
PRESTON        CLOUDY    40  33  77 SE12      29.82F
$$
ABBREVIATIONS USED IN REMARKS
   TC - TEMPERATURES IN CELSIUS
  WCI - WIND CHILL INDEX
   HX - HEAT INDEX
  VSB - VISIBILITY
$$




USA.gov is the U.S. government's official web portal to all federal, state and local government web resources and services.